Nampa, ID

11:39 PM MST on January 20, 2017 (GMT -0700)
Nampa

Weather History for KMAN - March, 2014

Change the Weather History Date:

Saturday, March 15, 2014

  Actual Average (KBOI) Record (KBOI)
Temperature  
Mean Temperature 44 °F -  
Max Temperature 59 °F 53 °F 73 °F (1994)
Min Temperature 28 °F 32 °F 6 °F (1906)
Degree Days  
Heating Degree Days 22    
Moisture  
Dew Point 28 °F    
Average Humidity 61    
Maximum Humidity 100    
Minimum Humidity 15    
Precipitation  
Precipitation 0.00 in - - ()
Sea Level Pressure  
Sea Level Pressure 30.37 in    
Wind  
Wind Speed 4 mph (NE)    
Max Wind Speed 7 mph    
Max Gust Speed -    
Visibility 10 miles    
Events      
Averages and records for this station are not official NWS values.
T = Trace of Precipitation, MM = Missing Value Source: NWS Daily Summary

Daily Weather History Graph

Daily Weather History Graph

Search for Another Location

Airport or City:

Trip Planner

Search our weather history database for the weather conditions in past years. The results will help you decide how hot, cold, wet, or windy it might be!

Date:

Astronomy

Mar. 15, 2014 Rise Set
Actual Time 7:58 AM MDT 7:52 PM MDT
Civil Twilight 7:29 AM MDT 8:21 PM MDT
Nautical Twilight 6:56 AM MDT 8:54 PM MDT
Astronomical Twilight 6:22 AM MDT 9:28 PM MDT
Moon 7:15 PM MDT (3/15) 7:13 AM MDT (3/15)
Length of Visible Light 12h 51m
Length of Day
11h 54m
Waxing Gibbous, 99% of the Moon is Illuminated
Mar 15
Waxing Gibbous
Mar 16
Full
Mar 23
Last Quarter
Mar 30
New
Apr 7
First Quarter

Hourly Weather History & Observations

Time (MDT) Temp. Windchill Dew Point Humidity Pressure Visibility Wind Dir Wind Speed Gust Speed Precip Events Conditions
12:15 AM 42.8 °F 40.1 °F 41.0 °F 93% 30.23 in 10.0 mi NNW 4.6 mph - N/A   Clear
12:35 AM 44.6 °F 40.7 °F 41.0 °F 87% 30.24 in 10.0 mi NW 6.9 mph - N/A   Clear
12:55 AM 41.0 °F 38.0 °F 39.2 °F 93% 30.25 in 10.0 mi NNW 4.6 mph - N/A   Clear
1:15 AM 41.0 °F 37.1 °F 37.4 °F 87% 30.26 in 10.0 mi NNW 5.8 mph - N/A   Clear
1:35 AM 39.2 °F 35.0 °F 37.4 °F 93% 30.27 in 10.0 mi WNW 5.8 mph - N/A   Clear
1:55 AM 41.0 °F 38.0 °F 37.4 °F 87% 30.27 in 10.0 mi WNW 4.6 mph - N/A   Clear
2:15 AM 35.6 °F - 35.6 °F 100% 30.28 in 10.0 mi Calm Calm - N/A   Clear
2:35 AM 37.4 °F 34.9 °F 37.4 °F 100% 30.29 in 10.0 mi WNW 3.5 mph - N/A   Clear
2:55 AM 35.6 °F - 35.6 °F 100% 30.30 in 10.0 mi Calm Calm - N/A   Clear
3:15 AM 35.6 °F 32.8 °F 35.6 °F 100% 30.31 in 10.0 mi North 3.5 mph - N/A   Clear
3:35 AM 32.0 °F 26.4 °F 32.0 °F 100% 30.32 in 10.0 mi NW 5.8 mph - N/A   Clear
3:55 AM 39.2 °F 34.2 °F 35.6 °F 87% 30.32 in 10.0 mi NW 6.9 mph - N/A   Clear
4:15 AM 37.4 °F 34.9 °F 33.8 °F 87% 30.33 in 10.0 mi NW 3.5 mph - N/A   Clear
4:35 AM 35.6 °F 32.8 °F 32.0 °F 87% 30.34 in 10.0 mi SSW 3.5 mph - N/A   Clear
4:55 AM 33.8 °F 30.8 °F 33.8 °F 100% 30.34 in 10.0 mi WNW 3.5 mph - N/A   Clear
5:15 AM 37.4 °F 33.8 °F 32.0 °F 81% 30.34 in 10.0 mi NW 4.6 mph - N/A   Clear
5:35 AM 32.0 °F 26.4 °F 32.0 °F 100% 30.36 in 10.0 mi SW 5.8 mph - N/A   Clear
5:55 AM 30.2 °F - 30.2 °F 100% 30.37 in 10.0 mi Calm Calm - N/A   Clear
6:15 AM 32.0 °F - 32.0 °F 100% 30.37 in 10.0 mi Calm Calm - N/A   Clear
6:35 AM 32.0 °F 28.7 °F 32.0 °F 100% 30.39 in 10.0 mi East 3.5 mph - N/A   Clear
6:55 AM 28.4 °F - 28.4 °F 100% 30.39 in 10.0 mi Calm Calm - N/A   Clear
7:15 AM 32.0 °F - 32.0 °F 100% 30.39 in 10.0 mi Calm Calm - N/A   Clear
7:35 AM 32.0 °F - 32.0 °F 100% 30.40 in 10.0 mi Calm Calm - N/A   Clear
7:55 AM 30.2 °F - 30.2 °F 100% 30.40 in 10.0 mi Calm Calm - N/A   Clear
8:15 AM 28.4 °F - 28.4 °F 100% 30.40 in 10.0 mi Calm Calm - N/A   Clear
8:35 AM 32.0 °F - 32.0 °F 100% 30.42 in 10.0 mi Calm Calm - N/A   Clear
8:55 AM 30.2 °F - 30.2 °F 100% 30.42 in 10.0 mi Calm Calm - N/A   Clear
9:15 AM 35.6 °F 32.8 °F 33.8 °F 93% 30.42 in 9.0 mi NNW 3.5 mph - N/A   Clear
9:35 AM 39.2 °F 37.0 °F 32.0 °F 75% 30.43 in 10.0 mi NNW 3.5 mph - N/A   Clear
9:55 AM 39.2 °F - 33.8 °F 81% 30.43 in 10.0 mi Calm Calm - N/A   Clear
10:15 AM 41.0 °F - 33.8 °F 76% 30.44 in 10.0 mi Calm Calm - N/A   Clear
10:35 AM 41.0 °F - 32.0 °F 70% 30.44 in 10.0 mi Calm Calm - N/A   Clear
10:55 AM 44.6 °F 43.1 °F 32.0 °F 61% 30.44 in 10.0 mi West 3.5 mph - N/A   Clear
11:15 AM 46.4 °F - 32.0 °F 57% 30.44 in 10.0 mi Calm Calm - N/A   Clear
11:35 AM 46.4 °F - 32.0 °F 57% 30.45 in 10.0 mi Calm Calm - N/A   Clear
11:55 AM 48.2 °F - 30.2 °F 50% 30.45 in 10.0 mi West 3.5 mph - N/A   Clear
12:15 PM 48.2 °F - 28.4 °F 46% 30.45 in 10.0 mi Calm Calm - N/A   Clear
12:35 PM 50.0 °F - 26.6 °F 40% 30.45 in 10.0 mi NNE 3.5 mph - N/A   Clear
12:55 PM 50.0 °F - 26.6 °F 40% 30.45 in 10.0 mi Calm Calm - N/A   Clear
1:15 PM 51.8 °F - 26.6 °F 38% 30.45 in 10.0 mi NNE 6.9 mph - N/A   Clear
1:35 PM 51.8 °F - 24.8 °F 35% 30.44 in 10.0 mi SE 3.5 mph - N/A   Clear
1:55 PM 53.6 °F - 26.6 °F 35% 30.44 in 10.0 mi North 5.8 mph - N/A   Clear
2:15 PM 53.6 °F - 24.8 °F 33% 30.43 in 10.0 mi North 4.6 mph - N/A   Clear
2:35 PM 55.4 °F - 24.8 °F 31% 30.43 in 10.0 mi WNW 5.8 mph - N/A   Clear
2:55 PM 55.4 °F - 24.8 °F 31% 30.42 in 10.0 mi North 3.5 mph - N/A   Clear
3:15 PM 55.4 °F - 21.2 °F 26% 30.41 in 10.0 mi Calm Calm - N/A   Clear
3:35 PM 55.4 °F - 19.4 °F 25% 30.41 in 10.0 mi NNE 3.5 mph - N/A   Clear
3:55 PM 57.2 °F - 21.2 °F 25% 30.40 in 10.0 mi North 4.6 mph - N/A   Clear
4:15 PM 57.2 °F - 23.0 °F 27% 30.38 in 10.0 mi ESE 3.5 mph - N/A   Clear
4:35 PM 57.2 °F - 19.4 °F 23% 30.39 in 10.0 mi East 3.5 mph - N/A   Clear
4:55 PM 57.2 °F - 19.4 °F 23% 30.39 in 10.0 mi NNE 4.6 mph - N/A   Clear
5:15 PM 59.0 °F - 17.6 °F 20% 30.37 in 10.0 mi NNE 5.8 mph - N/A   Clear
5:35 PM 59.0 °F - 17.6 °F 20% 30.37 in 10.0 mi ENE 6.9 mph - N/A   Clear
5:55 PM 57.2 °F - 15.8 °F 20% 30.37 in 10.0 mi ENE 4.6 mph - N/A   Clear
6:15 PM 57.2 °F - 15.8 °F 20% 30.36 in 10.0 mi ESE 4.6 mph - N/A   Clear
6:35 PM 59.0 °F - 10.4 °F 15% 30.36 in 10.0 mi ESE 3.5 mph - N/A   Clear
6:55 PM 57.2 °F - 14.0 °F 18% 30.36 in 10.0 mi East 4.6 mph - N/A   Clear
7:15 PM 57.2 °F - 10.4 °F 16% 30.36 in 10.0 mi Calm Calm - N/A   Clear
7:35 PM 55.4 °F - 12.2 °F 18% 30.35 in 10.0 mi ESE 3.5 mph - N/A   Clear
7:55 PM 53.6 °F - 17.6 °F 24% 30.35 in 10.0 mi ESE 3.5 mph - N/A   Clear
8:15 PM 50.0 °F - 19.4 °F 30% 30.34 in 10.0 mi ESE 4.6 mph - N/A   Clear
8:35 PM 50.0 °F - 23.0 °F 35% 30.35 in 10.0 mi Calm Calm - N/A   Clear
8:55 PM 48.2 °F - 17.6 °F 30% 30.35 in 10.0 mi ESE 4.6 mph - N/A   Unknown
9:15 PM 46.4 °F 44.3 °F 21.2 °F 37% 30.35 in 10.0 mi SE 4.6 mph - N/A   Clear
9:35 PM 44.6 °F 42.2 °F 26.6 °F 49% 30.35 in 10.0 mi SE 4.6 mph - N/A   Clear
9:55 PM 44.6 °F 42.2 °F 23.0 °F 43% 30.35 in 10.0 mi ESE 4.6 mph - N/A   Clear
10:15 PM 44.6 °F 42.2 °F 24.8 °F 46% 30.36 in 10.0 mi ESE 4.6 mph - N/A   Clear
10:35 PM 42.8 °F 40.1 °F 24.8 °F 49% 30.36 in 10.0 mi SE 4.6 mph - N/A   Clear
10:55 PM 39.2 °F 35.0 °F 26.6 °F 61% 30.36 in 10.0 mi SE 5.8 mph - N/A   Clear
11:15 PM 39.2 °F 35.0 °F 26.6 °F 61% 30.36 in 10.0 mi SE 5.8 mph - N/A   Clear
11:35 PM 39.2 °F 35.9 °F 26.6 °F 61% 30.36 in 10.0 mi SE 4.6 mph - N/A   Clear
11:55 PM 37.4 °F 32.8 °F 28.4 °F 70% 30.36 in 10.0 mi SE 5.8 mph - N/A   Clear